{"data":{"norad_id":57744,"intl_designator":"2023-131N","name":"STARLINK-30363","alt_names":[],"object_type":"PAYLOAD","status":"ACTIVE","operator":null,"country":"US","launch_date":"2023-09-01","launch_site_code":"AFETR","launch_vehicle":null,"mission":null,"orbit_class":"UNKNOWN","rcs_meters":null,"size_class":null,"mass_kg":null,"dimensions":null,"purposes":["comms"],"wikipedia_slug":null,"has_3d_model":false,"image_url":null,"decayed_at":null,"tle_current":{"epoch":"2026-05-25T04:05:08.104416Z","epoch_age_seconds":63386,"freshness":"FRESH","line1":"1 57744U 23131N   26145.17023269 -.00001225  00000+0 -34974-4 0  9997","line2":"2 57744  43.0068  86.0201 0001841 252.7040 107.3610 15.27573819151789","mean_motion":15.27573819,"eccentricity":0.0001841,"inclination_deg":43.0068,"raan_deg":86.0201,"arg_perigee_deg":252.704,"mean_anomaly_deg":107.361,"bstar":-3.4974e-5,"rev_number":15178,"period_min":94.267130143843,"perigee_km":481.80445647202,"apogee_km":484.3307520073,"semimajor_km":6861.2046042397,"source":"CELESTRAK","updated_at":"2026-05-25T13:38:18.401250Z"}}}